DC1MBB-9 Weather Reports


Display with metric or nautical units.
time (UTC)temp
F
wind
direction
speed
MPH
gust
MPH
rain 1hr
in
rain 24hr
in
rain mn
in
humidity
%
barometer
mb
20260509161910 74 0 0.0 0.0 0.00 0.00 0.00 32 957.0
20260509161309 74 0 0.0 0.0 0.00 0.00 0.00 31 957.0
20260509160708 74 0 0.0 0.0 0.00 0.00 0.00 31 957.0
20260509160107 74 0 0.0 0.0 0.00 0.00 0.00 31 957.0
20260509155506 74 0 0.0 0.0 0.00 0.00 0.00 31 957.0
20260509154906 74 0 0.0 0.0 0.00 0.00 0.00 31 957.0
20260509154305 75 0 0.0 0.0 0.00 0.00 0.00 31 957.0
20260509153704 75 0 0.0 0.0 0.00 0.00 0.00 31 957.0
20260509153103 75 0 0.0 0.0 0.00 0.00 0.00 31 957.0
20260509152503 75 0 0.0 0.0 0.00 0.00 0.00 30 958.0
20260509151902 76 0 0.0 0.0 0.00 0.00 0.00 30 958.0
20260509151301 76 0 0.0 0.0 0.00 0.00 0.00 31 958.0
20260509150700 76 0 0.0 0.0 0.00 0.00 0.00 35 958.0
20260509150059 76 0 0.0 0.0 0.00 0.00 0.00 35 958.0
20260509145459 77 0 0.0 0.0 0.00 0.00 0.00 28 958.0
20260509144858 78 0 0.0 0.0 0.00 0.00 0.00 28 958.0
20260509144257 78 0 0.0 0.0 0.00 0.00 0.00 28 958.0
20260509143656 79 0 0.0 0.0 0.00 0.00 0.00 27 958.0
20260509143055 80 0 0.0 0.0 0.00 0.00 0.00 27 958.0
20260509142455 80 0 0.0 0.0 0.00 0.00 0.00 26 958.0
20260509141854 81 0 0.0 0.0 0.00 0.00 0.00 27 958.0
20260509141253 83 0 0.0 0.0 0.00 0.00 0.00 25 958.0
20260509140652 84 0 0.0 0.0 0.00 0.00 0.00 24 958.0
20260509140051 86 0 0.0 0.0 0.00 0.00 0.00 22 958.0
20260509135451 91 0 0.0 0.0 0.00 0.00 0.00 21 958.0
20260509134850 95 0 0.0 0.0 0.00 0.00 0.00 19 958.0
20260509134249 90 0 0.0 0.0 0.00 0.00 0.00 22 958.0
20260509133648 90 0 0.0 0.0 0.00 0.00 0.00 21 958.0
20260509133047 90 0 0.0 0.0 0.00 0.00 0.00 23 958.0
20260509132447 90 0 0.0 0.0 0.00 0.00 0.00 22 958.0
20260509131846 90 0 0.0 0.0 0.00 0.00 0.00 22 958.0
20260509131245 90 0 0.0 0.0 0.00 0.00 0.00 22 958.0
20260509130644 92 0 0.0 0.0 0.00 0.00 0.00 21 958.0
20260509130043 96 0 0.0 0.0 0.00 0.00 0.00 19 959.0
20260509125443 88 0 0.0 0.0 0.00 0.00 0.00 23 959.0
20260509124842 86 0 0.0 0.0 0.00 0.00 0.00 26 959.0
20260509124241 85 0 0.0 0.0 0.00 0.00 0.00 27 959.0
20260509123808 83 0 0.0 0.0 0.00 0.00 0.00 29 959.0
20260509123640 83 0 0.0 0.0 0.00 0.00 0.00 29 959.0
20260509123039 81 0 0.0 0.0 0.00 0.00 0.00 30 959.0
20260509122438 80 0 0.0 0.0 0.00 0.00 0.00 30 959.0
20260509121838 79 0 0.0 0.0 0.00 0.00 0.00 32 959.0
20260509121237 77 0 0.0 0.0 0.00 0.00 0.00 31 959.0
20260509120636 78 0 0.0 0.0 0.00 0.00 0.00 32 959.0
20260509120035 77 0 0.0 0.0 0.00 0.00 0.00 34 959.0
20260509115435 77 0 0.0 0.0 0.00 0.00 0.00 34 959.0
20260509114834 76 0 0.0 0.0 0.00 0.00 0.00 35 959.0
20260509114233 76 0 0.0 0.0 0.00 0.00 0.00 37 959.0
20260509113632 75 0 0.0 0.0 0.00 0.00 0.00 37 959.0
20260509113031 74 0 0.0 0.0 0.00 0.00 0.00 40 959.0
20260509112431 73 0 0.0 0.0 0.00 0.00 0.00 39 959.0
20260509111830 73 0 0.0 0.0 0.00 0.00 0.00 40 959.0
20260509111229 72 0 0.0 0.0 0.00 0.00 0.00 40 959.0
20260509110628 71 0 0.0 0.0 0.00 0.00 0.00 41 959.0
20260509110027 71 0 0.0 0.0 0.00 0.00 0.00 42 959.0
20260509105427 70 0 0.0 0.0 0.00 0.00 0.00 42 959.0
20260509104826 70 0 0.0 0.0 0.00 0.00 0.00 44 960.0
20260509104225 70 0 0.0 0.0 0.00 0.00 0.00 43 960.0
20260509103624 70 0 0.0 0.0 0.00 0.00 0.00 44 960.0
20260509103024 69 0 0.0 0.0 0.00 0.00 0.00 45 960.0
20260509102423 69 0 0.0 0.0 0.00 0.00 0.00 46 960.0
20260509101822 68 0 0.0 0.0 0.00 0.00 0.00 46 960.0
20260509101221 68 0 0.0 0.0 0.00 0.00 0.00 46 960.0
20260509100620 68 0 0.0 0.0 0.00 0.00 0.00 46 960.0
20260509100020 68 0 0.0 0.0 0.00 0.00 0.00 46 960.0
20260509095419 67 0 0.0 0.0 0.00 0.00 0.00 48 960.0
20260509094818 67 0 0.0 0.0 0.00 0.00 0.00 49 960.0
20260509094217 66 0 0.0 0.0 0.00 0.00 0.00 50 960.0
20260509093617 66 0 0.0 0.0 0.00 0.00 0.00 50 960.0
20260509093016 66 0 0.0 0.0 0.00 0.00 0.00 52 960.0
20260509092415 65 0 0.0 0.0 0.00 0.00 0.00 54 960.0
20260509091814 65 0 0.0 0.0 0.00 0.00 0.00 54 960.0
20260509091213 65 0 0.0 0.0 0.00 0.00 0.00 55 960.0
20260509090613 64 0 0.0 0.0 0.00 0.00 0.00 57 960.0
20260509090012 64 0 0.0 0.0 0.00 0.00 0.00 58 960.0
20260509085411 64 0 0.0 0.0 0.00 0.00 0.00 59 960.0
20260509084810 64 0 0.0 0.0 0.00 0.00 0.00 59 960.0
20260509084210 63 0 0.0 0.0 0.00 0.00 0.00 60 960.0
20260509083609 63 0 0.0 0.0 0.00 0.00 0.00 61 960.0
20260509083008 62 0 0.0 0.0 0.00 0.00 0.00 62 960.0
20260509082407 62 0 0.0 0.0 0.00 0.00 0.00 63 960.0
20260509081806 62 0 0.0 0.0 0.00 0.00 0.00 64 960.0
20260509081206 61 0 0.0 0.0 0.00 0.00 0.00 64 960.0
20260509080605 60 0 0.0 0.0 0.00 0.00 0.00 65 960.0
20260509080004 60 0 0.0 0.0 0.00 0.00 0.00 64 960.0
20260509075403 60 0 0.0 0.0 0.00 0.00 0.00 64 960.0
20260509074803 60 0 0.0 0.0 0.00 0.00 0.00 65 960.0
20260509074202 60 0 0.0 0.0 0.00 0.00 0.00 67 960.0
20260509073601 59 0 0.0 0.0 0.00 0.00 0.00 68 960.0
20260509073000 59 0 0.0 0.0 0.00 0.00 0.00 66 960.0
20260509072400 59 0 0.0 0.0 0.00 0.00 0.00 67 960.0
20260509071759 60 0 0.0 0.0 0.00 0.00 0.00 67 961.0
20260509071158 60 0 0.0 0.0 0.00 0.00 0.00 67 960.0
20260509070557 59 0 0.0 0.0 0.00 0.00 0.00 67 960.0
20260509065956 59 0 0.0 0.0 0.00 0.00 0.00 67 960.0
20260509065356 59 0 0.0 0.0 0.00 0.00 0.00 68 960.0
20260509064755 59 0 0.0 0.0 0.00 0.00 0.00 71 960.0
20260509064154 59 0 0.0 0.0 0.00 0.00 0.00 70 960.0
20260509063553 58 0 0.0 0.0 0.00 0.00 0.00 72 960.0
20260509062953 58 0 0.0 0.0 0.00 0.00 0.00 70 960.0
20260509062352 57 0 0.0 0.0 0.00 0.00 0.00 71 960.0
20260509061751 57 0 0.0 0.0 0.00 0.00 0.00 71 960.0
20260509061150 57 0 0.0 0.0 0.00 0.00 0.00 72 960.0
20260509060550 57 0 0.0 0.0 0.00 0.00 0.00 73 960.0
20260509055949 56 0 0.0 0.0 0.00 0.00 0.00 73 960.0
20260509055348 56 0 0.0 0.0 0.00 0.00 0.00 73 960.0
20260509054747 56 0 0.0 0.0 0.00 0.00 0.00 73 960.0
20260509054147 56 0 0.0 0.0 0.00 0.00 0.00 73 961.0
20260509053546 54 0 0.0 0.0 0.00 0.00 0.00 75 961.0
20260509052945 54 0 0.0 0.0 0.00 0.00 0.00 75 961.0
20260509052344 55 0 0.0 0.0 0.00 0.00 0.00 74 960.0
20260509051743 56 0 0.0 0.0 0.00 0.00 0.00 70 960.0
20260509051143 56 0 0.0 0.0 0.00 0.00 0.00 72 960.0
20260509050542 55 0 0.0 0.0 0.00 0.00 0.00 71 960.0
20260509045941 55 0 0.0 0.0 0.00 0.00 0.00 73 960.0
20260509045340 55 0 0.0 0.0 0.00 0.00 0.00 73 960.0
20260509044740 54 0 0.0 0.0 0.00 0.00 0.00 74 960.0
20260509044139 54 0 0.0 0.0 0.00 0.00 0.00 73 960.0
20260509043538 54 0 0.0 0.0 0.00 0.00 0.00 73 960.0
20260509042937 54 0 0.0 0.0 0.00 0.00 0.00 74 960.0
20260509042337 54 0 0.0 0.0 0.00 0.00 0.00 75 960.0
20260509041736 54 0 0.0 0.0 0.00 0.00 0.00 72 960.0
20260509041135 54 0 0.0 0.0 0.00 0.00 0.00 72 960.0
20260509040534 54 0 0.0 0.0 0.00 0.00 0.00 72 960.0
20260509035934 54 0 0.0 0.0 0.00 0.00 0.00 74 960.0
20260509035333 54 0 0.0 0.0 0.00 0.00 0.00 73 959.0
20260509034732 54 0 0.0 0.0 0.00 0.00 0.00 73 960.0
20260509034131 54 0 0.0 0.0 0.00 0.00 0.00 73 959.0
20260509033531 54 0 0.0 0.0 0.00 0.00 0.00 72 959.0
20260509032930 54 0 0.0 0.0 0.00 0.00 0.00 72 959.0
20260509032329 54 0 0.0 0.0 0.00 0.00 0.00 72 960.0
20260509031728 54 0 0.0 0.0 0.00 0.00 0.00 72 959.0
20260509031127 54 0 0.0 0.0 0.00 0.00 0.00 73 959.0
20260509030527 54 0 0.0 0.0 0.00 0.00 0.00 73 960.0
20260509025926 54 0 0.0 0.0 0.00 0.00 0.00 72 959.0
20260509025325 54 0 0.0 0.0 0.00 0.00 0.00 72 960.0
20260509024724 54 0 0.0 0.0 0.00 0.00 0.00 72 959.0
20260509024124 54 0 0.0 0.0 0.00 0.00 0.00 72 959.0
20260509023523 54 0 0.0 0.0 0.00 0.00 0.00 72 959.0
20260509022922 54 0 0.0 0.0 0.00 0.00 0.00 72 959.0
20260509022321 54 0 0.0 0.0 0.00 0.00 0.00 71 959.0
20260509021721 54 0 0.0 0.0 0.00 0.00 0.00 71 959.0
20260509021120 54 0 0.0 0.0 0.00 0.00 0.00 71 959.0
20260509020520 54 0 0.0 0.0 0.00 0.00 0.00 71 959.0
20260509015918 54 0 0.0 0.0 0.00 0.00 0.00 71 959.0
20260509015318 55 0 0.0 0.0 0.00 0.00 0.00 71 959.0
20260509014116 54 0 0.0 0.0 0.00 0.00 0.00 72 959.0
20260509012914 54 0 0.0 0.0 0.00 0.00 0.00 71 959.0
20260509012314 55 0 0.0 0.0 0.00 0.00 0.00 71 959.0
20260509011713 55 0 0.0 0.0 0.00 0.00 0.00 72 959.0
20260509011112 55 0 0.0 0.0 0.00 0.00 0.00 71 959.0
20260509010511 55 0 0.0 0.0 0.00 0.00 0.00 71 959.0
20260509005911 55 0 0.0 0.0 0.00 0.00 0.00 70 959.0
20260509005504 55 0 0.0 0.0 0.00 0.00 0.00 70 959.0
20260509005310 55 0 0.0 0.0 0.00 0.00 0.00 70 959.0
20260509004709 55 0 0.0 0.0 0.00 0.00 0.00 70 959.0
20260509004108 55 0 0.0 0.0 0.00 0.00 0.00 69 959.0
20260509003508 55 0 0.0 0.0 0.00 0.00 0.00 69 959.0
20260509002907 56 0 0.0 0.0 0.00 0.00 0.00 68 959.0
20260509002307 56 0 0.0 0.0 0.00 0.00 0.00 70 959.0
20260509001705 56 0 0.0 0.0 0.00 0.00 0.00 70 959.0
20260509001105 56 0 0.0 0.0 0.00 0.00 0.00 69 959.0
20260509000504 56 0 0.0 0.0 0.00 0.00 0.00 68 959.0
20260508235903 56 0 0.0 0.0 0.00 0.00 0.00 68 959.0
20260508235306 56 0 0.0 0.0 0.00 0.00 0.00 68 959.0
20260508234702 56 0 0.0 0.0 0.00 0.00 0.00 68 959.0
20260508234101 56 0 0.0 0.0 0.00 0.00 0.00 68 959.0
20260508233500 56 0 0.0 0.0 0.00 0.00 0.00 69 959.0
20260508232859 56 0 0.0 0.0 0.00 0.00 0.00 67 959.0
20260508232258 57 0 0.0 0.0 0.00 0.00 0.00 67 959.0
20260508231658 56 0 0.0 0.0 0.00 0.00 0.00 67 959.0
20260508231057 57 0 0.0 0.0 0.00 0.00 0.00 65 959.0
20260508230456 57 0 0.0 0.0 0.00 0.00 0.00 65 960.0
20260508225855 57 0 0.0 0.0 0.00 0.00 0.00 63 960.0
20260508225255 57 0 0.0 0.0 0.00 0.00 0.00 63 960.0
20260508224654 57 0 0.0 0.0 0.00 0.00 0.00 64 960.0
20260508224053 58 0 0.0 0.0 0.00 0.00 0.00 63 960.0
20260508223452 58 0 0.0 0.0 0.00 0.00 0.00 62 960.0
20260508222852 58 0 0.0 0.0 0.00 0.00 0.00 61 960.0
20260508222251 58 0 0.0 0.0 0.00 0.00 0.00 61 960.0
20260508221650 58 0 0.0 0.0 0.00 0.00 0.00 61 960.0
20260508221049 58 0 0.0 0.0 0.00 0.00 0.00 62 959.0
20260508220448 58 0 0.0 0.0 0.00 0.00 0.00 60 959.0
20260508215848 59 0 0.0 0.0 0.00 0.00 0.00 60 960.0
20260508215247 59 0 0.0 0.0 0.00 0.00 0.00 60 959.0
20260508214646 59 0 0.0 0.0 0.00 0.00 0.00 58 959.0
20260508214045 59 0 0.0 0.0 0.00 0.00 0.00 58 959.0
20260508213445 59 0 0.0 0.0 0.00 0.00 0.00 59 959.0
20260508212844 60 0 0.0 0.0 0.00 0.00 0.00 58 959.0
20260508212243 59 0 0.0 0.0 0.00 0.00 0.00 59 959.0
20260508211642 59 0 0.0 0.0 0.00 0.00 0.00 58 959.0
20260508211042 60 0 0.0 0.0 0.00 0.00 0.00 58 959.0
20260508210441 60 0 0.0 0.0 0.00 0.00 0.00 56 960.0
20260508205840 61 0 0.0 0.0 0.00 0.00 0.00 56 959.0
20260508205239 60 0 0.0 0.0 0.00 0.00 0.00 57 959.0
20260508204639 61 0 0.0 0.0 0.00 0.00 0.00 55 959.0
20260508204038 61 0 0.0 0.0 0.00 0.00 0.00 55 959.0
20260508203437 61 0 0.0 0.0 0.00 0.00 0.00 53 959.0
20260508202836 62 0 0.0 0.0 0.00 0.00 0.00 53 959.0
20260508202235 62 0 0.0 0.0 0.00 0.00 0.00 53 959.0
20260508201635 62 0 0.0 0.0 0.00 0.00 0.00 54 959.0
20260508201034 62 0 0.0 0.0 0.00 0.00 0.00 51 959.0
20260508200433 63 0 0.0 0.0 0.00 0.00 0.00 50 959.0
20260508195832 62 0 0.0 0.0 0.00 0.00 0.00 52 959.0
20260508195232 63 0 0.0 0.0 0.00 0.00 0.00 49 959.0
20260508194631 63 0 0.0 0.0 0.00 0.00 0.00 49 959.0
20260508194030 64 0 0.0 0.0 0.00 0.00 0.00 47 959.0
20260508193430 64 0 0.0 0.0 0.00 0.00 0.00 48 959.0
20260508192828 64 0 0.0 0.0 0.00 0.00 0.00 47 959.0
20260508192228 64 0 0.0 0.0 0.00 0.00 0.00 47 959.0
20260508191627 65 0 0.0 0.0 0.00 0.00 0.00 46 959.0
20260508191026 65 0 0.0 0.0 0.00 0.00 0.00 45 959.0
20260508190425 65 0 0.0 0.0 0.00 0.00 0.00 47 958.0
20260508185825 65 0 0.0 0.0 0.00 0.00 0.00 45 958.0
20260508185224 65 0 0.0 0.0 0.00 0.00 0.00 44 958.0
20260508184623 66 0 0.0 0.0 0.00 0.00 0.00 44 958.0
20260508184022 66 0 0.0 0.0 0.00 0.00 0.00 43 958.0
20260508183421 67 0 0.0 0.0 0.00 0.00 0.00 43 958.0
20260508182821 67 0 0.0 0.0 0.00 0.00 0.00 43 958.0
20260508182220 67 0 0.0 0.0 0.00 0.00 0.00 43 958.0
20260508181619 67 0 0.0 0.0 0.00 0.00 0.00 42 958.0
20260508181018 67 0 0.0 0.0 0.00 0.00 0.00 41 958.0
20260508180418 68 0 0.0 0.0 0.00 0.00 0.00 42 958.0
20260508180202 68 0 0.0 0.0 0.00 0.00 0.00 41 958.0
20260508175817 68 0 0.0 0.0 0.00 0.00 0.00 41 958.0
20260508175216 68 0 0.0 0.0 0.00 0.00 0.00 41 958.0
20260508174615 68 0 0.0 0.0 0.00 0.00 0.00 40 958.0
20260508174014 68 0 0.0 0.0 0.00 0.00 0.00 40 958.0
20260508173414 68 0 0.0 0.0 0.00 0.00 0.00 40 958.0
20260508172813 68 0 0.0 0.0 0.00 0.00 0.00 40 958.0
20260508172212 68 0 0.0 0.0 0.00 0.00 0.00 39 957.0
20260508171611 69 0 0.0 0.0 0.00 0.00 0.00 38 957.0
20260508171011 69 0 0.0 0.0 0.00 0.00 0.00 39 957.0
20260508170410 68 0 0.0 0.0 0.00 0.00 0.00 39 957.0
20260508165809 69 0 0.0 0.0 0.00 0.00 0.00 38 957.0
20260508165208 69 0 0.0 0.0 0.00 0.00 0.00 38 957.0
20260508164607 69 0 0.0 0.0 0.00 0.00 0.00 38 957.0
20260508164007 69 0 0.0 0.0 0.00 0.00 0.00 37 957.0
20260508163406 69 0 0.0 0.0 0.00 0.00 0.00 37 957.0
20260508162805 70 0 0.0 0.0 0.00 0.00 0.00 37 957.0